Weather History for Key West NAF, FL

Change the Weather History Date:

Tuesday, October 9, 2012

  Actual Average Record
Temperature  
Mean Temperature 82 °F -  
Max Temperature 88 °F 85 °F 90 °F (2007)
Min Temperature 77 °F 76 °F 71 °F (1949)
Cooling Degree Days 18    
Growing Degree Days 32 (Base 50)    
Moisture  
Dew Point 75 °F    
Average Humidity 80    
Maximum Humidity 89    
Minimum Humidity 65    
Precipitation  
Precipitation 1.23 in - - ()
Sea Level Pressure  
Sea Level Pressure 29.99 in    
Wind  
Wind Speed 5 mph (NE)    
Max Wind Speed 26 mph    
Max Gust Speed 33 mph    
Visibility 8 miles    
Events Rain , Thunderstorm    
Averages and records for this station are not official NWS values.
T = Trace of Precipitation, MM = Missing Value Source: NWS Daily Summary

Daily Weather History Graph

Daily Weather History Graph

Search for Another Location

Airport:

Trip Planner

Search our weather history database for the weather conditions in past years. The results will help you decide how hot, cold, wet, or windy it might be!

Date:

Astronomy

Oct. 09, 2012 Rise Set
Actual Time 7:22 AM EDT 7:05 PM EDT
Civil Twilight 6:59 AM EDT 7:27 PM EDT
Nautical Twilight 6:32 AM EDT 7:54 PM EDT
Astronomical Twilight 6:06 AM EDT 8:20 PM EDT
Moon 1:34 AM EDT (10/9) 2:58 PM EDT (10/9)
Length of Visible Light 12h 28m
Length of Day
11h 42m
Last Quarter, 37% of the Moon is Illuminated
Oct 9
Last Quarter
Oct 15
New
Oct 21
First Quarter
Oct 29
Full
Nov 6
Last Quarter

Hourly Weather History & Observations

Time (EDT) Temp. Heat Index Dew Point Humidity Pressure Visibility Wind Dir Wind Speed Gust Speed Precip Events Conditions
12:53 AM 82.0 °F 89.4 °F 75.9 °F 82% 29.99 in 10.0 mi NNE 3.5 mph - N/A   Clear
1:53 AM 82.0 °F 87.9 °F 73.9 °F 76% 29.98 in 10.0 mi Calm Calm - N/A   Clear
2:53 AM 80.1 °F 85.1 °F 75.0 °F 85% 29.96 in 10.0 mi NE 3.5 mph - N/A   Clear
3:53 AM 80.1 °F 85.1 °F 75.0 °F 85% 29.95 in 10.0 mi NNE 3.5 mph - N/A   Clear
4:53 AM 81.0 °F 86.7 °F 75.0 °F 82% 29.94 in 10.0 mi NE 3.5 mph - N/A   Clear
5:53 AM 80.1 °F 85.1 °F 75.0 °F 85% 29.95 in 10.0 mi NE 3.5 mph - N/A   Clear
6:11 AM 78.8 °F - 75.2 °F 89% 29.96 in 10.0 mi NE 3.5 mph - N/A   Partly Cloudy
6:53 AM 81.0 °F 87.3 °F 75.9 °F 85% 29.96 in 10.0 mi NNE 3.5 mph - N/A   Partly Cloudy
7:53 AM 82.0 °F 90.2 °F 77.0 °F 85% 29.97 in 10.0 mi NE 3.5 mph - N/A   Scattered Clouds
8:53 AM 84.9 °F 95.3 °F 77.0 °F 77% 29.99 in 10.0 mi NE 6.9 mph - N/A   Mostly Cloudy
9:53 AM 87.1 °F 97.3 °F 75.9 °F 69% 30.01 in 10.0 mi NE 8.1 mph - N/A   Mostly Cloudy
10:53 AM 84.0 °F 92.6 °F 75.9 °F 76% 30.01 in 10.0 mi NE 4.6 mph - N/A   Mostly Cloudy
10:59 AM 82.4 °F 90.9 °F 77.0 °F 84% 30.02 in 5.0 mi ENE 4.6 mph - 0.02 in Rain Light Rain
11:53 AM 81.0 °F 87.9 °F 77.0 °F 88% 30.02 in 5.0 mi Calm Calm - 0.38 in Rain Light Rain
12:19 PM 82.4 °F 89.5 °F 75.2 °F 79% 30.01 in 10.0 mi ESE 3.5 mph - 0.02 in   Mostly Cloudy
12:41 PM 84.2 °F 94.1 °F 77.0 °F 79% 30.01 in 7.0 mi North 8.1 mph - 0.03 in Rain Light Rain
12:53 PM 82.9 °F 91.8 °F 77.0 °F 82% 30.01 in 7.0 mi NE 12.7 mph 24.2 mph 0.07 in Rain Light Rain
12:55 PM 80.6 °F 86.2 °F 75.2 °F 84% 30.01 in 1.0 mi NE 13.8 mph 24.2 mph 0.16 in Rain Light Rain
1:02 PM 78.8 °F - 73.4 °F 83% 30.00 in 2.0 mi NNE 26.5 mph 33.4 mph 0.38 in Rain Light Rain
1:16 PM 77.0 °F - 73.4 °F 89% 30.01 in 1.0 mi North 6.9 mph 18.4 mph 0.67 in Rain , Thunderstorm Light Thunderstorms and Rain
1:31 PM 78.8 °F - 75.2 °F 89% 30.00 in 6.0 mi North 5.8 mph - 0.76 in Rain , Thunderstorm Light Thunderstorms and Rain
1:42 PM 80.6 °F 86.2 °F 75.2 °F 84% 30.00 in 7.0 mi North 4.6 mph - 0.78 in Rain Light Rain
1:53 PM 81.0 °F 86.7 °F 75.0 °F 82% 30.00 in 7.0 mi NE 5.8 mph - 0.78 in Rain Light Rain
2:18 PM 84.2 °F 94.1 °F 77.0 °F 79% 29.99 in 10.0 mi ENE 9.2 mph - 0.00 in   Mostly Cloudy
2:53 PM 84.9 °F 94.1 °F 75.9 °F 74% 29.98 in 10.0 mi ENE 6.9 mph - 0.00 in   Mostly Cloudy
3:53 PM 88.0 °F 97.5 °F 75.0 °F 65% 29.97 in 10.0 mi East 11.5 mph - N/A   Mostly Cloudy
4:53 PM 86.0 °F 95.1 °F 75.0 °F 70% 29.96 in 10.0 mi East 8.1 mph - N/A   Mostly Cloudy
5:53 PM 84.9 °F 91.4 °F 73.0 °F 67% 29.96 in 10.0 mi ESE 8.1 mph - N/A   Mostly Cloudy
6:53 PM 82.9 °F 88.8 °F 73.0 °F 72% 29.97 in 10.0 mi ESE 3.5 mph - N/A   Mostly Cloudy
7:53 PM 82.9 °F 89.4 °F 73.9 °F 74% 29.98 in 10.0 mi NE 3.5 mph - N/A   Mostly Cloudy
8:53 PM 81.0 °F 86.7 °F 75.0 °F 82% 29.99 in 10.0 mi Calm Calm - N/A   Mostly Cloudy
9:53 PM 82.0 °F 88.6 °F 75.0 °F 79% 30.01 in 10.0 mi Calm Calm - N/A   Mostly Cloudy
10:53 PM 82.0 °F 88.6 °F 75.0 °F 79% 30.02 in 10.0 mi Calm Calm - N/A   Partly Cloudy
11:53 PM 82.0 °F 88.6 °F 75.0 °F 79% 30.02 in 10.0 mi Calm Calm - N/A   Clear